Location: *
(51.5000°N, 0.1100°W)
Time: 12:45:01
(UTC+00:00)

IDEFIX/ARIANE 42P - Pass Details

Date: 05 August 2024
Orbit: 782 x 799 km, 98.5° (Epoch: 15 September)

Event Time Altitude Azimuth Distance (km) Brightness Sun altitude
Rises 01:46:02 0° 16° (NNE) 3,284 7.4 -18.3°
Reaches altitude 10° 01:48:22 10° 18° (NNE) 2,351 6.3 -18.1°
Maximum altitude 01:53:33 73° 104° (ESE) 824 2.6 -17.7°
Enters shadow 01:56:20 28° 183° (S) 1,444 3.4 -17.5°
